When you browse on this site, cookies collect data to enhance your experience and personalize the content and advertising you see.
Visit our Privacy Policy to learn more. By continuing to use the site, you agree to this use of cookies and data.
  • In Latvia
  • List of Countries
  • For 7 days
  • Water Temperature
  • Weather Map
  • Weather Widgets
  • user-avatar
    Login

    Hourly Weather Wisowka

    Today, 23 February, Sunday

    Time Temperature Precipitation Wind Pressure Humidity
    00:00 +6°C° 0.1 mm 9 mps 746 mmHg 66%
    01:00 +6°C° 0.1 mm 9 mps 746 mmHg 72%
    02:00 +5°C° 0.5 mm 8 mps 746 mmHg 75%
    03:00 +4°C° 0.5 mm 8 mps 745 mmHg 78%
    04:00 +3°C° 0.5 mm 7 mps 745 mmHg 81%
    05:00 +3°C° 1 mm 7 mps 745 mmHg 81%
    06:00 +3°C° 1 mm 7 mps 745 mmHg 80%
    07:00 +3°C° 1 mm 7 mps 745 mmHg 80%
    08:00 +2°C° 0.1 mm 8 mps 745 mmHg 75%
    09:00 +4°C° 0.1 mm 8 mps 745 mmHg 71%
    10:00 +3°C° 0.1 mm 9 mps 745 mmHg 67%
    11:00 +4°C° 0.1 mm 8 mps 745 mmHg 72%
    12:00 +4°C° 0.1 mm 8 mps 745 mmHg 77%
    13:00 +3°C° 0.1 mm 7 mps 744 mmHg 82%
    14:00 +3°C° 0.1 mm 6 mps 743 mmHg 84%
    15:00 +3°C° 0.1 mm 5 mps 741 mmHg 85%
    16:00 +4°C° 0.1 mm 4 mps 740 mmHg 87%
    17:00 +4°C° 1.7 mm 4 mps 739 mmHg 90%
    18:00 +4°C° 1.7 mm 3 mps 737 mmHg 93%
    19:00 +5°C° 1.7 mm 2 mps 736 mmHg 96%
    20:00 +5°C° 0.8 mm 3 mps 735 mmHg 93%
    21:00 +6°C° 0.8 mm 5 mps 734 mmHg 91%
    22:00 +5°C° 0.8 mm 6 mps 732 mmHg 88%
    23:00 +4°C° 1 mm 8 mps 734 mmHg 89%

    Tomorrow, 24 February, Monday

    Time Temperature Precipitation Wind Pressure Humidity
    00:00 +2°C° 1 mm 9 mps 735 mmHg 90%
    01:00 +2°C° 1 mm 11 mps 736 mmHg 91%
    02:00 +1°C° 0.5 mm 11 mps 738 mmHg 85%
    03:00 +1°C° 0.5 mm 10 mps 739 mmHg 80%
    04:00 +1°C° 0.5 mm 10 mps 741 mmHg 75%
    05:00 +1°C° 0.3 mm 10 mps 742 mmHg 76%
    06:00 0°C° 0.3 mm 10 mps 744 mmHg 78%
    07:00 0°C° 0.3 mm 9 mps 745 mmHg 80%
    08:00 0°C° 0 mm 9 mps 746 mmHg 78%
    09:00 +1°C° 0 mm 9 mps 746 mmHg 77%
    10:00 +1°C° 0 mm 9 mps 747 mmHg 75%
    11:00 +1°C° 0 mm 8 mps 747 mmHg 74%
    12:00 +2°C° 0 mm 8 mps 747 mmHg 74%
    13:00 +2°C° 0 mm 8 mps 748 mmHg 73%
    14:00 +3°C° 0 mm 7 mps 747 mmHg 71%
    15:00 +3°C° 0 mm 6 mps 747 mmHg 70%
    16:00 +3°C° 0 mm 6 mps 747 mmHg 69%
    17:00 +3°C° 0 mm 5 mps 747 mmHg 71%
    18:00 +2°C° 0 mm 5 mps 747 mmHg 74%
    19:00 +3°C° 0 mm 4 mps 747 mmHg 76%
    20:00 +1°C° 0 mm 4 mps 746 mmHg 77%
    21:00 +1°C° 0 mm 4 mps 746 mmHg 77%
    22:00 +1°C° 0 mm 4 mps 745 mmHg 78%
    23:00 +1°C° 0.1 mm 4 mps 744 mmHg 80%

    Day after tomorrow, 25 February, Tuesday

    Time Temperature Precipitation Wind Pressure Humidity
    00:00 +1°C° 0.1 mm 5 mps 743 mmHg 82%
    01:00 +1°C° 0.1 mm 5 mps 742 mmHg 84%
    02:00 +2°C° 0.3 mm 6 mps 740 mmHg 83%
    03:00 +2°C° 0.3 mm 7 mps 739 mmHg 82%
    04:00 +2°C° 0.3 mm 8 mps 738 mmHg 80%
    05:00 +4°C° 0.6 mm 8 mps 737 mmHg 82%
    06:00 +5°C° 0.6 mm 9 mps 736 mmHg 84%
    07:00 +5°C° 0.6 mm 9 mps 736 mmHg 86%
    08:00 +6°C° 0.1 mm 9 mps 736 mmHg 85%
    09:00 +6°C° 0.1 mm 8 mps 736 mmHg 83%
    10:00 +7°C° 0.1 mm 8 mps 736 mmHg 82%
    11:00 +8°C° 0.1 mm 7 mps 736 mmHg 81%
    12:00 +8°C° 0.1 mm 7 mps 736 mmHg 80%
    13:00 +8°C° 0.1 mm 6 mps 736 mmHg 78%
    14:00 +8°C° 0.1 mm 6 mps 736 mmHg 76%
    15:00 +8°C° 0.1 mm 5 mps 735 mmHg 75%
    16:00 +9°C° 0.1 mm 5 mps 735 mmHg 73%
    17:00 +8°C° 0.4 mm 5 mps 735 mmHg 78%
    18:00 +7°C° 0.4 mm 5 mps 735 mmHg 83%
    19:00 +7°C° 0.4 mm 4 mps 735 mmHg 88%
    20:00 +6°C° 0.6 mm 5 mps 735 mmHg 82%
    21:00 +6°C° 0.6 mm 5 mps 735 mmHg 76%
    22:00 +5°C° 0.6 mm 5 mps 735 mmHg 70%
    23:00 +3°C° 0 mm 5 mps 735 mmHg 71%

    26 February, Wednesday

    Time Temperature Precipitation Wind Pressure Humidity
    00:00 +4°C° 0 mm 4 mps 735 mmHg 71%
    01:00 +3°C° 0 mm 4 mps 735 mmHg 72%
    02:00 +1°C° 0 mm 4 mps 735 mmHg 73%
    03:00 +2°C° 0 mm 3 mps 734 mmHg 75%
    04:00 +2°C° 0 mm 3 mps 734 mmHg 76%
    05:00 +2°C° 0 mm 3 mps 734 mmHg 77%
    06:00 +1°C° 0 mm 3 mps 733 mmHg 77%
    07:00 +1°C° 0 mm 3 mps 733 mmHg 78%
    08:00 +3°C° 0 mm 3 mps 733 mmHg 73%
    09:00 +4°C° 0 mm 3 mps 732 mmHg 68%
    10:00 +5°C° 0 mm 4 mps 732 mmHg 64%
    11:00 +6°C° 0 mm 4 mps 732 mmHg 61%
    12:00 +6°C° 0 mm 4 mps 732 mmHg 59%
    13:00 +7°C° 0 mm 4 mps 732 mmHg 56%
    14:00 +8°C° 0 mm 3 mps 732 mmHg 58%
    15:00 +7°C° 0 mm 3 mps 732 mmHg 61%
    16:00 +7°C° 0 mm 3 mps 732 mmHg 63%
    17:00 +5°C° 0 mm 3 mps 732 mmHg 67%
    18:00 +5°C° 0 mm 3 mps 732 mmHg 71%
    19:00 +5°C° 0 mm 2 mps 733 mmHg 75%
    20:00 +3°C° 0 mm 3 mps 733 mmHg 77%
    21:00 +3°C° 0 mm 4 mps 734 mmHg 78%
    22:00 +1°C° 0 mm 5 mps 734 mmHg 79%
    23:00 +1°C° 0 mm 5 mps 734 mmHg 81%

    27 February, Thursday

    Time Temperature Precipitation Wind Pressure Humidity
    00:00 0°C° 0 mm 5 mps 735 mmHg 83%
    01:00 0°C° 0 mm 4 mps 735 mmHg 85%
    02:00 0°C° 0 mm 4 mps 735 mmHg 88%
    03:00 0°C° 0 mm 5 mps 736 mmHg 91%
    04:00 -1°C° 0 mm 5 mps 736 mmHg 94%
    05:00 0°C° 0 mm 5 mps 737 mmHg 91%
    06:00 0°C° 0 mm 5 mps 737 mmHg 87%
    07:00 0°C° 0 mm 5 mps 738 mmHg 83%
    08:00 -1°C° 0 mm 6 mps 739 mmHg 77%
    09:00 0°C° 0 mm 7 mps 739 mmHg 71%
    10:00 0°C° 0 mm 7 mps 740 mmHg 65%
    11:00 0°C° 0 mm 8 mps 740 mmHg 64%
    12:00 0°C° 0 mm 8 mps 741 mmHg 63%
    13:00 0°C° 0 mm 8 mps 741 mmHg 62%
    14:00 0°C° 0 mm 7 mps 741 mmHg 63%
    15:00 0°C° 0 mm 7 mps 742 mmHg 65%
    16:00 +1°C° 0 mm 6 mps 742 mmHg 66%
    17:00 0°C° 0 mm 5 mps 743 mmHg 69%
    18:00 -1°C° 0 mm 4 mps 743 mmHg 71%
    19:00 0°C° 0 mm 3 mps 744 mmHg 73%
    20:00 -1°C° 0 mm 3 mps 744 mmHg 75%
    21:00 -1°C° 0 mm 3 mps 744 mmHg 76%
    22:00 -1°C° 0 mm 2 mps 744 mmHg 77%
    23:00 -1°C° 0 mm 2 mps 744 mmHg 78%

    28 February, Friday

    Time Temperature Precipitation Wind Pressure Humidity
    00:00 -1°C° 0 mm 2 mps 744 mmHg 78%
    01:00 -1°C° 0 mm 3 mps 744 mmHg 78%
    02:00 -1°C° 0 mm 3 mps 743 mmHg 79%
    03:00 -1°C° 0 mm 3 mps 743 mmHg 80%
    04:00 -2°C° 0 mm 4 mps 743 mmHg 81%
    05:00 -2°C° 0 mm 4 mps 742 mmHg 79%
    06:00 -1°C° 0 mm 5 mps 742 mmHg 76%
    07:00 -1°C° 0 mm 5 mps 742 mmHg 73%
    08:00 -1°C° 0 mm 6 mps 742 mmHg 72%
    09:00 0°C° 0 mm 7 mps 741 mmHg 71%
    10:00 +1°C° 0 mm 8 mps 741 mmHg 70%
    11:00 +2°C° 0 mm 8 mps 741 mmHg 69%
    12:00 +4°C° 0 mm 8 mps 740 mmHg 69%
    13:00 +5°C° 0 mm 8 mps 740 mmHg 68%
    14:00 +5°C° 0 mm 8 mps 740 mmHg 70%
    15:00 +5°C° 0 mm 7 mps 740 mmHg 72%
    16:00 +5°C° 0 mm 7 mps 740 mmHg 75%
    17:00 +5°C° 0 mm 7 mps 740 mmHg 78%
    18:00 +5°C° 0 mm 7 mps 740 mmHg 81%
    19:00 +5°C° 0 mm 7 mps 740 mmHg 84%
    20:00 +5°C° 0 mm 7 mps 740 mmHg 83%
    21:00 +5°C° 0 mm 7 mps 740 mmHg 83%
    22:00 +5°C° 0 mm 7 mps 740 mmHg 82%
    23:00 +5°C° 0 mm 6 mps 740 mmHg 82%
    Show more